When you browse on this site, cookies collect data to enhance your experience and personalize the content and advertising you see.
Visit our Privacy Policy to learn more. By continuing to use the site, you agree to this use of cookies and data.
  • In Austria
  • List of Countries
  • For 7 days
  • Water Temperature
  • Satellite Maps
  • Weather Map
  • News
  • Weather Widgets
  • user-avatar
    Login

    Hourly Weather Shatry

    Today, 20 February, Wednesday

    Time Temperature Precipitation Wind Pressure Humidity
    00:00 0°C° 0.1 mm 4 mps 734 mmHg 93%
    01:00 0°C° 0.1 mm 4 mps 734 mmHg 93%
    02:00 0°C° 0 mm 5 mps 733 mmHg 94%
    03:00 0°C° 0.1 mm 5 mps 733 mmHg 94%
    04:00 0°C° 0.1 mm 5 mps 733 mmHg 93%
    05:00 0°C° 0.1 mm 4 mps 733 mmHg 93%
    06:00 0°C° 0.1 mm 4 mps 733 mmHg 93%
    07:00 0°C° 0.1 mm 5 mps 732 mmHg 92%
    08:00 0°C° 0.1 mm 5 mps 732 mmHg 92%
    09:00 0°C° 0.1 mm 5 mps 732 mmHg 91%
    10:00 0°C° 0.1 mm 5 mps 732 mmHg 91%
    11:00 0°C° 0.1 mm 5 mps 732 mmHg 90%
    12:00 +1°C° 0.2 mm 5 mps 731 mmHg 89%
    13:00 +1°C° 0.2 mm 5 mps 731 mmHg 88%
    14:00 +1°C° 0.2 mm 5 mps 731 mmHg 87%
    15:00 +1°C° 0.5 mm 5 mps 731 mmHg 88%
    16:00 0°C° 0.5 mm 5 mps 730 mmHg 88%
    17:00 0°C° 0.5 mm 5 mps 730 mmHg 88%
    18:00 -1°C° 0.4 mm 5 mps 730 mmHg 85%
    19:00 -2°C° 0.4 mm 5 mps 730 mmHg 82%
    20:00 -3°C° 0.4 mm 6 mps 731 mmHg 79%
    21:00 -4°C° 0.2 mm 6 mps 731 mmHg 80%
    22:00 -5°C° 0.2 mm 6 mps 732 mmHg 82%
    23:00 -6°C° 0.2 mm 6 mps 732 mmHg 83%

    Tomorrow, 21 February, Thursday

    Time Temperature Precipitation Wind Pressure Humidity
    00:00 -6°C° 0.1 mm 6 mps 733 mmHg 82%
    01:00 -8°C° 0.1 mm 6 mps 733 mmHg 81%
    02:00 -9°C° 0.1 mm 6 mps 734 mmHg 80%
    03:00 -9°C° 0.2 mm 6 mps 734 mmHg 79%
    04:00 -9°C° 0.2 mm 6 mps 734 mmHg 79%
    05:00 -9°C° 0.2 mm 6 mps 735 mmHg 78%
    06:00 -9°C° 0.2 mm 7 mps 735 mmHg 79%
    07:00 -9°C° 0.2 mm 7 mps 736 mmHg 80%
    08:00 -9°C° 0.2 mm 7 mps 737 mmHg 81%
    09:00 -9°C° 0.1 mm 7 mps 737 mmHg 79%
    10:00 -9°C° 0.1 mm 7 mps 738 mmHg 77%
    11:00 -8°C° 0.1 mm 7 mps 739 mmHg 75%
    12:00 -8°C° 0 mm 7 mps 740 mmHg 74%
    13:00 -9°C° 0 mm 6 mps 741 mmHg 72%
    14:00 -9°C° 0 mm 6 mps 742 mmHg 71%
    15:00 -9°C° 0 mm 6 mps 742 mmHg 72%
    16:00 -10°C° 0 mm 6 mps 743 mmHg 72%
    17:00 -11°C° 0 mm 5 mps 744 mmHg 73%
    18:00 -11°C° 0 mm 5 mps 744 mmHg 74%
    19:00 -12°C° 0 mm 5 mps 745 mmHg 74%
    20:00 -12°C° 0 mm 5 mps 746 mmHg 75%
    21:00 -11°C° 0 mm 4 mps 746 mmHg 75%
    22:00 -12°C° 0 mm 4 mps 747 mmHg 76%
    23:00 -12°C° 0 mm 4 mps 747 mmHg 76%

    Day after tomorrow, 22 February, Friday

    Time Temperature Precipitation Wind Pressure Humidity
    00:00 -12°C° 0 mm 4 mps 748 mmHg 77%
    01:00 -14°C° 0 mm 4 mps 748 mmHg 78%
    02:00 -14°C° 0 mm 4 mps 749 mmHg 79%
    03:00 -14°C° 0 mm 4 mps 749 mmHg 78%
    04:00 -15°C° 0 mm 4 mps 750 mmHg 78%
    05:00 -15°C° 0 mm 4 mps 750 mmHg 78%
    06:00 -15°C° 0 mm 4 mps 751 mmHg 78%
    07:00 -15°C° 0 mm 5 mps 751 mmHg 78%
    08:00 -14°C° 0 mm 5 mps 752 mmHg 78%
    09:00 -14°C° 0 mm 5 mps 752 mmHg 75%
    10:00 -14°C° 0 mm 6 mps 752 mmHg 72%
    11:00 -12°C° 0 mm 6 mps 753 mmHg 69%
    12:00 -11°C° 0 mm 6 mps 753 mmHg 65%
    13:00 -12°C° 0 mm 7 mps 753 mmHg 62%
    14:00 -11°C° 0 mm 7 mps 753 mmHg 58%
    15:00 -11°C° 0 mm 6 mps 754 mmHg 62%
    16:00 -11°C° 0 mm 6 mps 754 mmHg 67%
    17:00 -11°C° 0 mm 6 mps 754 mmHg 71%
    18:00 -12°C° 0.1 mm 6 mps 755 mmHg 73%
    19:00 -12°C° 0.1 mm 5 mps 755 mmHg 74%
    20:00 -13°C° 0.1 mm 5 mps 756 mmHg 76%
    21:00 -13°C° 0 mm 5 mps 756 mmHg 77%
    22:00 -14°C° 0 mm 4 mps 757 mmHg 79%
    23:00 -13°C° 0 mm 3 mps 757 mmHg 81%

    23 February, Saturday

    Time Temperature Precipitation Wind Pressure Humidity
    00:00 -14°C° 0 mm 4 mps 757 mmHg 82%
    01:00 -15°C° 0 mm 4 mps 758 mmHg 83%
    02:00 -15°C° 0 mm 4 mps 758 mmHg 85%
    03:00 -14°C° 0 mm 3 mps 758 mmHg 86%
    04:00 -15°C° 0 mm 3 mps 758 mmHg 87%
    05:00 -15°C° 0 mm 3 mps 758 mmHg 89%
    06:00 -15°C° 0 mm 3 mps 759 mmHg 89%
    07:00 -15°C° 0 mm 3 mps 759 mmHg 88%
    08:00 -15°C° 0 mm 3 mps 759 mmHg 88%
    09:00 -14°C° 0 mm 3 mps 759 mmHg 83%
    10:00 -13°C° 0 mm 3 mps 759 mmHg 78%
    11:00 -10°C° 0 mm 3 mps 760 mmHg 73%
    12:00 -10°C° 0 mm 3 mps 759 mmHg 72%
    13:00 -8°C° 0 mm 2 mps 759 mmHg 70%
    14:00 -8°C° 0 mm 2 mps 759 mmHg 69%
    15:00 -8°C° 0 mm 2 mps 758 mmHg 70%
    16:00 -8°C° 0 mm 2 mps 758 mmHg 72%
    17:00 -8°C° 0 mm 2 mps 758 mmHg 74%
    18:00 -8°C° 0 mm 2 mps 758 mmHg 76%
    19:00 -8°C° 0 mm 2 mps 758 mmHg 78%
    20:00 -7°C° 0 mm 1 mps 757 mmHg 80%
    21:00 -8°C° 0.1 mm 2 mps 757 mmHg 83%
    22:00 -8°C° 0.1 mm 2 mps 756 mmHg 86%
    23:00 -8°C° 0.1 mm 3 mps 756 mmHg 89%

    24 February, Sunday

    Time Temperature Precipitation Wind Pressure Humidity
    00:00 -7°C° 0.1 mm 2 mps 756 mmHg 90%
    01:00 -7°C° 0.1 mm 2 mps 755 mmHg 91%
    02:00 -7°C° 0.1 mm 2 mps 755 mmHg 92%
    03:00 -7°C° 0.2 mm 2 mps 755 mmHg 93%
    04:00 -6°C° 0.2 mm 2 mps 755 mmHg 94%
    05:00 -6°C° 0.2 mm 2 mps 755 mmHg 95%
    06:00 -4°C° 0 mm 1 mps 755 mmHg 95%
    07:00 -4°C° 0 mm 1 mps 755 mmHg 95%
    08:00 -3°C° 0 mm 1 mps 755 mmHg 96%
    09:00 -2°C° 0 mm 1 mps 755 mmHg 94%
    10:00 -1°C° 0 mm 1 mps 755 mmHg 92%
    11:00 0°C° 0 mm 1 mps 756 mmHg 90%
    12:00 0°C° 0 mm 1 mps 756 mmHg 90%
    13:00 0°C° 0 mm 0 mps 756 mmHg 90%
    14:00 0°C° 0 mm 0 mps 756 mmHg 90%
    15:00 +1°C° 0 mm 1 mps 756 mmHg 92%
    16:00 0°C° 0 mm 1 mps 756 mmHg 94%
    17:00 0°C° 0 mm 1 mps 756 mmHg 96%
    18:00 0°C° 0 mm 1 mps 756 mmHg 96%
    19:00 -1°C° 0 mm 1 mps 756 mmHg 96%
    20:00 -1°C° 0 mm 1 mps 756 mmHg 97%
    21:00 -1°C° 0 mm 1 mps 755 mmHg 96%
    22:00 -1°C° 0 mm 1 mps 755 mmHg 96%
    23:00 -2°C° 0 mm 2 mps 755 mmHg 96%

    25 February, Monday

    Time Temperature Precipitation Wind Pressure Humidity
    00:00 -2°C° 0 mm 2 mps 755 mmHg 94%
    01:00 -2°C° 0 mm 2 mps 755 mmHg 93%
    02:00 -2°C° 0 mm 2 mps 754 mmHg 92%
    03:00 -2°C° 0 mm 2 mps 754 mmHg 92%
    04:00 -2°C° 0 mm 3 mps 753 mmHg 92%
    05:00 -2°C° 0 mm 3 mps 752 mmHg 93%
    06:00 -2°C° 0 mm 3 mps 752 mmHg 93%
    07:00 -2°C° 0 mm 3 mps 752 mmHg 94%
    08:00 -1°C° 0 mm 3 mps 751 mmHg 95%
    09:00 -1°C° 0 mm 3 mps 751 mmHg 94%
    10:00 0°C° 0 mm 3 mps 751 mmHg 93%
    11:00 -1°C° 0 mm 4 mps 751 mmHg 92%
    12:00 -1°C° 0 mm 4 mps 750 mmHg 90%
    13:00 -1°C° 0 mm 4 mps 750 mmHg 88%
    14:00 -1°C° 0 mm 4 mps 750 mmHg 86%
    15:00 -1°C° 0.1 mm 4 mps 750 mmHg 86%
    16:00 -2°C° 0.1 mm 4 mps 750 mmHg 86%
    17:00 -1°C° 0.1 mm 3 mps 750 mmHg 87%
    18:00 -1°C° 0 mm 3 mps 750 mmHg 87%
    19:00 -1°C° 0 mm 3 mps 750 mmHg 88%
    20:00 -2°C° 0 mm 3 mps 750 mmHg 88%
    21:00 -2°C° 0 mm 3 mps 750 mmHg 89%
    22:00 -2°C° 0 mm 3 mps 750 mmHg 91%
    23:00 -4°C° 0 mm 3 mps 750 mmHg 92%
    Show more